Regional Weather Roundup
Issued by NWS Raleigh/Durham, NC

Home | Current Version | Previous Version | Text Only | Print | Product List | Glossary On
Versions: 1 2 3 4 5 6 7 8 9 10 11 12 13 14 15 16 17 18 19 20 21 22 23 24 25 26 27 28 29 30 31 32 33 34 35 36 37 38 39 40 41 42 43 44 45 46 47 48 49 50
000
ASUS42 KRAH 240310
RWRRAH
NORTH CAROLINA WEATHER ROUNDUP
NATIONAL WEATHER SERVICE RALEIGH NC
1100 PM EDT SAT JUL 23 2016

NOTE: "FAIR" INDICATES FEW OR NO CLOUDS BELOW 12,000 FEET WITH NO
SIGNIFICANT WEATHER AND/OR OBSTRUCTIONS TO VISIBILITY.

NCZ001-053-055-056-065-067-240400-
WESTERN NORTH CAROLINA

CITY           SKY/WX    TMP DP  RH WIND       PRES   REMARKS
ASHEVILLE      CLEAR     74  69  85 NW3       30.11R
JEFFERSON      CLEAR     71  64  78 CALM      30.17R
MORGANTON      CLEAR     73  73  97 CALM      30.09R
HICKORY        CLEAR     78  73  84 CALM      30.04R
RUTHERFORDTON    N/A     76  75  97 CALM      30.04S
MOUNT AIRY     CLEAR     80  73  79 CALM      30.05R
BOONE          CLEAR     68  64  88 CALM      30.18R
$$

NCZ021-022-025-041-071-084-088-240400-
CENTRAL NORTH CAROLINA

CITY           SKY/WX    TMP DP  RH WIND       PRES   REMARKS
CHARLOTTE      CLEAR     79  71  76 SW3       30.01R
GREENSBORO     CLEAR     82  70  66 S7        30.00S
WINSTON-SALEM  CLEAR     83  70  64 SW5       30.02R
RALEIGH-DURHAM PTCLDY    80  73  79 SW6       29.99R
FORT BRAGG     CLEAR     80  73  79 SW5       29.98R
FAYETTEVILLE   CLEAR     78  72  81 SW3       29.99R
BURLINGTON     CLEAR     79  70  74 SW3       29.99S
LAURINBURG     CLEAR     77  72  84 SW6       30.00R
$$

NCZ011-015-027-028-043-044-047-080-103-240400-
NORTHEASTERN NORTH CAROLINA

CITY           SKY/WX    TMP DP  RH WIND       PRES   REMARKS
ROCKY MT-WILSO CLEAR     81  76  84 S7        29.99R
GREENVILLE     CLEAR     81  75  83 SW7       30.00S
WASHINGTON     CLEAR     80  74  81 S5        29.99S
ELIZABETH CITY CLEAR     82  75  79 S9        29.98R
MANTEO           N/A     82  77  85 SW12      30.00R
CAPE HATTERAS  CLEAR     82  76  81 SW8       30.01S
$$

NCZ078-087-090-091-093-098-101-240400-
SOUTHEASTERN NORTH CAROLINA

CITY           SKY/WX    TMP DP  RH WIND       PRES   REMARKS
LUMBERTON      CLEAR     76  73  91 S3        29.99S
GOLDSBORO      CLEAR     80  77  91 S3        29.98R
KINSTON        CLEAR     79  73  81 SW6       30.00R
KENANSVILLE    NOT AVBL
NEW BERN       CLEAR     78  73  84 S3        30.01S
CHERRY POINT   CLEAR     79  74  84 S6        30.01F
BEAUFORT       CLEAR     83  75  77 SW10      30.01S
JACKSONVILLE   CLEAR     79  73  82 CALM      29.99S
WILMINGTON     CLEAR     79  74  84 SW3       30.00S
$$




USA.gov is the U.S. government's official web portal to all federal, state and local government web resources and services.